STARLINK-5849, 55924

Orbit data source: Space-Track

STARLINK-5849, 55924 is a payload satellite owned by SpaceX/Seattle (US) in LEO that was launched on Fri, 17 Mar 2023 UTC via an FALCON 9 launch vehicle from the Air Force Western Test Range (AFWTR). Payload-class satellites include a variety of spacecraft equipped with specific instruments for various scientific and technological missions. These include communications satellites like Starlink; space stations such as the ISS; scientific satellites like the Hubble; Earth observation satellites from companies like Planet Labs, Umbra, and HawkEye 360; GPS; miniature CubeSats for education and research; and military/defense satellites.

Loading next visibility...
Identifier
55924, 2023-037L
Orbit
LEO
Country
Flag of USUS
Related business
Manufacturer
SpaceX/Seattle
Mission
Operational Commercial Communications
Bus & Motor
STARLINK, Unknown motor
Mass
305 kg wet, ~290 kg dry
Launch date (UTC)
2023-03-17 (3 years ago)
Launch vehicle
FALCON 9
Launch site
Air Force Western Test Range (AFWTR)
Object type
Payload
Rocket body
Debris
Shape & HBR
Box + 1 Pan, 10.1 m
Radar Cross Section
11.087 m², Large (>1 m²)

Expand to show TLE details & history
Last TLE update: 2 days ago

TLE from 2 days ago
0 STARLINK-5849
1 55924U 23037L   26171.01724774  .00000452  00000-0  45629-4 0  9990
2 55924  70.0002  26.6233 0002956 269.7245  90.3576 14.98332900179304
Epoch: 2026-06-20T00:24Z
TLE epoch observation values (Epoch: 2026-06-20T00:24:50.204Z)
Latitude
0.00002°
Longitude
112.17621°
Altitude
574.484 km
Speed
7.574 km/s
True Right ascension
01h 46m 29s
True Declination
0° 00' 00"
Sunlit
Object was in daylight at epoch
Visualization orbit readout
Latitude
Unknown
Longitude
Unknown
Altitude
Unknown
Speed
Unknown
Apparent Right ascension
Unknown
Apparent Declination
Unknown
Sunlit
N/A
Visualization observer readout
Local Sidereal Time
21:57:38
Azimuth
Unknown
Elevation
Unknown
Doppler factor
Unknown
Orbital elements
Apogee altitude
572.049 km
Perigee altitude
567.941 km
Semi-major axis
6,948.132 km
Eccentricity
0.0003
Inclination
70.0002°
RAAN
26.6233°
Arg. of periapsis
269.7245°
True anomaly
90.39147°
Mean anomaly
90.3576°
Eccentric anomaly
90.37454°
Mean motion
3.7475 °/min
Orbital period
96.06 mins
BSTAR
0.000045629
Loading maneuver chart data...
Computing Atmospheric mass density...
Loading historical data...
Loading historical data...
Loading historical data...
Loading historical data...
Loading historical data...
Loading historical data...
Loading historical data...

Documentation

Showing up to 5 results
|